This demonstration page uses our WeatherBlox Daily Observations layout. Learn more.

Left ArrowRight Arrow

Hourly Observations for January 15, 2020

Temp ( °F °C ) Dew Point ( °F °C ) Humidity (%) Winds ( mph kmh ) Pressure ( in mb ) Visibility ( mi km ) Precip ( " mm )
12:53 am 00:53 Cloudy 59 15 58 14.4 96 96 SSW 5 7 30.19 1022 10 16 0.00 0.00
1:53 am 01:53 Mostly Cloudy 60 15.6 58 14.4 93 93 S 5 7 30.18 1022 10 16 0.00 0.00
2:53 am 02:53 Mostly Cloudy 57 13.9 56 13.3 96 96 Calm 30.15 1021 9 14 0.00 0.00
3:00 am 03:00 Partly Cloudy with Mist and Fog 57 13.9 56 13.3 96 96 Calm 30.17 1022 2 3 0.00 0.00
3:04 am 03:04 Mostly Cloudy with Fog 56 13.3 55 12.8 97 97 Calm 30.17 1022 1 1 0.00 0.00
3:15 am 03:15 Mostly Cloudy with Fog 56 13.3 55 12.8 97 97 Calm 30.17 1022 1 1 0.00 0.00
3:33 am 03:33 Mostly Cloudy with Mist and Fog 57 13.9 56 13.3 96 96 Calm 30.17 1022 1 1 0.00 0.00
3:42 am 03:42 Mostly Cloudy with Mist and Fog 55 12.8 55 12.8 100 100 Calm 30.16 1021 1 2 0.00 0.00
3:45 am 03:45 Mostly Cloudy with Fog 55 12.8 54 12.2 96 96 ENE 3 6 30.16 1021 1 1 0.00 0.00
3:53 am 03:53 Mostly Cloudy with Fog 55 12.8 54 12.2 96 96 Calm 30.15 1021 0 0 0.00 0.00
4:06 am 04:06 Mostly Cloudy with Fog 54 12.2 53 11.7 97 97 Calm 30.16 1021 1 1 0.00 0.00
4:33 am 04:33 Mostly Cloudy with Fog 54 12.2 53 11.7 97 97 Calm 30.16 1021 0 0 0.00 0.00
4:51 am 04:51 Mostly Cloudy with Fog 54 12 54 12 100 100 Calm 30.17 1022 1 1 0.00 0.00
4:53 am 04:53 Mostly Cloudy with Fog 54 12.2 53 11.7 97 97 Calm 30.15 1021 1 1 0.00 0.00
5:53 am 05:53 Mostly Cloudy with Fog 54 12.2 53 11.7 97 97 Calm 30.17 1022 1 1 0.00 0.00
6:07 am 06:07 Mostly Cloudy with Fog 53 11.7 53 11.7 100 100 Calm 30.19 1023 0 0 0.00 0.00
6:28 am 06:28 Cloudy with Fog 53 11.7 52 11.1 96 96 Calm 30.20 1023 1 1 0.00 0.00
6:35 am 06:35 Cloudy with Mist and Fog 53 11.7 52 11.1 96 96 Calm 30.20 1023 4 6 0.00 0.00
6:53 am 06:53 Cloudy 54 12.2 54 12.2 100 100 Calm 30.19 1022 10 16 0.00 0.00
7:53 am 07:53 Cloudy 54 12.2 54 12.2 100 100 Calm 30.19 1022 10 16 0.00 0.00
8:53 am 08:53 Cloudy 55 12.8 55 12.8 100 100 Calm 30.21 1023 10 16 0.00 0.00
9:53 am 09:53 Mostly Cloudy 58 14.4 57 13.9 97 97 Calm 30.22 1023 8 13 0.00 0.00
10:53 am 10:53 Cloudy 62 16.7 59 15 90 90 Calm 30.23 1024 10 16 0.00 0.00
11:53 am 11:53 Cloudy 67 19.4 61 16.1 81 81 Calm 30.21 1023 10 16 0.00 0.00
12:53 pm 12:53 Mostly Cloudy 69 20.6 60 15.6 73 73 VRB 5 7 30.17 1022 10 16 0.00 0.00
1:53 pm 13:53 Cloudy 69 20.6 60 15.6 73 73 VRB 6 9 30.16 1021 10 16 0.00 0.00
2:53 pm 14:53 Cloudy 70 21.1 61 16.1 73 73 SW 6 9 30.14 1021 10 16 0.00 0.00
3:53 pm 15:53 Cloudy 69 20.6 61 16.1 76 76 SW 7 11 30.15 1021 10 16 0.00 0.00
4:04 pm 16:04 Cloudy 69 20.6 62 16.7 78 78 SW 7 11 30.15 1021 10 16 0.00 0.00
4:53 pm 16:53 Mostly Cloudy 69 20.6 62 16.7 78 78 SSW 6 9 30.16 1021 10 16 0.00 0.00
5:16 pm 17:16 Cloudy 69 20.6 62 16.7 78 78 SSW 6 9 30.16 1021 10 16 0.00 0.00
5:53 pm 17:53 Cloudy 68 20 62 16.7 81 81 SSW 6 9 30.18 1022 10 16 0.00 0.00
6:53 pm 18:53 Cloudy 67 19.4 62 16.7 84 84 SSW 5 7 30.19 1022 10 16 0.00 0.00
7:53 pm 19:53 Cloudy 66 18.9 63 17.2 90 90 S 5 7 30.19 1022 10 16 0.00 0.00
8:36 pm 20:36 Cloudy 65 18.3 63 17.2 93 93 SSW 3 6 30.18 1022 10 16 0.00 0.00
8:53 pm 20:53 Cloudy 65 18.3 63 17.2 93 93 SW 3 6 30.19 1022 10 16 0.00 0.00
8:59 pm 20:59 Cloudy 65 18.3 63 17.2 93 93 SW 3 6 30.18 1022 10 16 0.00 0.00
9:21 pm 21:21 Cloudy 65 18.3 63 17.2 93 93 SSW 5 7 30.18 1022 10 16 0.00 0.00
9:53 pm 21:53 Cloudy 65 18.3 63 17.2 93 93 SSW 5 7 30.19 1022 10 16 0.00 0.00
10:00 pm 22:00 Cloudy 65 18.3 63 17.2 93 93 SSW 5 7 30.18 1022 10 16 0.00 0.00
10:53 pm 22:53 Cloudy 65 18.3 63 17.2 93 93 WSW 5 7 30.19 1022 10 16 0.00 0.00
11:53 pm 23:53 Cloudy 65 18.3 63 17.2 93 93 SW 5 7 30.18 1022 10 16 0.00 0.00

Powered by AerisWeather